• In Austria
  • List of Countries
  • For 7 days
  • Water Temperature
  • Satellite Maps
  • Weather Map
  • News
  • Weather Widgets
  • user-avatar
    Login

    Hourly Weather Albany

    Today, 12 December, Tuesday

    Time Temperature Precipitation Wind Pressure Humidity
    00:00 +19°C° 0 mm 4 mps 754 mmHg 91%
    01:00 +19°C° 0 mm 4 mps 753 mmHg 91%
    02:00 +19°C° 0 mm 4 mps 753 mmHg 92%
    03:00 +18°C° 0.3 mm 4 mps 753 mmHg 91%
    04:00 +18°C° 0.3 mm 4 mps 754 mmHg 90%
    05:00 +18°C° 0.3 mm 4 mps 754 mmHg 89%
    06:00 +19°C° 0 mm 4 mps 754 mmHg 82%
    07:00 +20°C° 0 mm 4 mps 754 mmHg 76%
    08:00 +21°C° 0 mm 5 mps 755 mmHg 70%
    09:00 +22°C° 0 mm 5 mps 755 mmHg 65%
    10:00 +23°C° 0 mm 5 mps 755 mmHg 60%
    11:00 +25°C° 0 mm 5 mps 755 mmHg 55%
    12:00 +25°C° 0 mm 5 mps 755 mmHg 55%
    13:00 +25°C° 0 mm 5 mps 755 mmHg 55%
    14:00 +25°C° 0 mm 5 mps 755 mmHg 57%
    15:00 +23°C° 0.1 mm 5 mps 755 mmHg 62%
    16:00 +22°C° 0.1 mm 5 mps 755 mmHg 68%
    17:00 +21°C° 0.1 mm 5 mps 755 mmHg 73%
    18:00 +20°C° 0.1 mm 5 mps 755 mmHg 75%
    19:00 +19°C° 0.1 mm 5 mps 756 mmHg 76%
    20:00 +17°C° 0 mm 5 mps 756 mmHg 79%
    21:00 +17°C° 0 mm 5 mps 756 mmHg 78%
    22:00 +17°C° 0 mm 4 mps 757 mmHg 77%
    23:00 +17°C° 0 mm 4 mps 757 mmHg 77%

    Tomorrow, 13 December, Wednesday

    Time Temperature Precipitation Wind Pressure Humidity
    00:00 +17°C° 0 mm 4 mps 757 mmHg 77%
    01:00 +15°C° 0 mm 4 mps 757 mmHg 78%
    02:00 +15°C° 0 mm 4 mps 756 mmHg 78%
    03:00 +15°C° 0.1 mm 4 mps 757 mmHg 80%
    04:00 +15°C° 0.1 mm 4 mps 757 mmHg 81%
    05:00 +15°C° 0.1 mm 4 mps 757 mmHg 82%
    06:00 +16°C° 0.1 mm 5 mps 757 mmHg 78%
    07:00 +16°C° 0.1 mm 5 mps 758 mmHg 74%
    08:00 +17°C° 0.1 mm 5 mps 758 mmHg 69%
    09:00 +19°C° 0.1 mm 5 mps 758 mmHg 66%
    10:00 +19°C° 0.1 mm 5 mps 759 mmHg 62%
    11:00 +20°C° 0.1 mm 5 mps 759 mmHg 58%
    12:00 +19°C° 0 mm 5 mps 759 mmHg 59%
    13:00 +19°C° 0 mm 5 mps 759 mmHg 59%
    14:00 +19°C° 0 mm 5 mps 759 mmHg 59%
    15:00 +20°C° 0 mm 5 mps 759 mmHg 58%
    16:00 +20°C° 0 mm 5 mps 759 mmHg 58%
    17:00 +20°C° 0 mm 5 mps 759 mmHg 57%
    18:00 +19°C° 0.1 mm 5 mps 759 mmHg 63%
    19:00 +18°C° 0.1 mm 4 mps 759 mmHg 69%
    20:00 +17°C° 0.1 mm 4 mps 759 mmHg 75%
    21:00 +17°C° 0.1 mm 4 mps 759 mmHg 77%
    22:00 +17°C° 0.1 mm 3 mps 760 mmHg 79%
    23:00 +16°C° 0.1 mm 3 mps 760 mmHg 81%

    Day after tomorrow, 14 December, Thursday

    Time Temperature Precipitation Wind Pressure Humidity
    00:00 +16°C° 0 mm 3 mps 759 mmHg 83%
    01:00 +16°C° 0 mm 3 mps 759 mmHg 85%
    02:00 +14°C° 0 mm 3 mps 759 mmHg 87%
    03:00 +14°C° 0 mm 3 mps 759 mmHg 87%
    04:00 +14°C° 0 mm 3 mps 759 mmHg 86%
    05:00 +15°C° 0 mm 2 mps 759 mmHg 86%
    06:00 +17°C° 0 mm 2 mps 759 mmHg 79%
    07:00 +18°C° 0 mm 2 mps 759 mmHg 71%
    08:00 +21°C° 0 mm 1 mps 760 mmHg 64%
    09:00 +20°C° 0 mm 2 mps 759 mmHg 61%
    10:00 +21°C° 0 mm 2 mps 759 mmHg 59%
    11:00 +21°C° 0 mm 2 mps 759 mmHg 56%
    12:00 +22°C° 0 mm 3 mps 759 mmHg 54%
    13:00 +24°C° 0 mm 3 mps 758 mmHg 51%
    14:00 +25°C° 0 mm 3 mps 758 mmHg 49%
    15:00 +23°C° 0 mm 4 mps 758 mmHg 52%
    16:00 +23°C° 0 mm 5 mps 757 mmHg 56%
    17:00 +22°C° 0 mm 5 mps 757 mmHg 59%
    18:00 +20°C° 0 mm 5 mps 757 mmHg 65%
    19:00 +19°C° 0 mm 4 mps 757 mmHg 70%
    20:00 +17°C° 0 mm 4 mps 758 mmHg 76%
    21:00 +17°C° 0 mm 3 mps 758 mmHg 78%
    22:00 +16°C° 0 mm 3 mps 758 mmHg 81%
    23:00 +16°C° 0 mm 2 mps 758 mmHg 83%

    15 December, Friday

    Time Temperature Precipitation Wind Pressure Humidity
    00:00 +16°C° 0 mm 2 mps 757 mmHg 84%
    01:00 +15°C° 0 mm 2 mps 757 mmHg 85%
    02:00 +15°C° 0 mm 2 mps 757 mmHg 87%
    03:00 +15°C° 0 mm 2 mps 756 mmHg 88%
    04:00 +15°C° 0 mm 2 mps 756 mmHg 89%
    05:00 +14°C° 0 mm 2 mps 756 mmHg 90%
    06:00 +16°C° 0 mm 2 mps 756 mmHg 81%
    07:00 +18°C° 0 mm 2 mps 756 mmHg 72%
    08:00 +20°C° 0 mm 2 mps 757 mmHg 63%
    09:00 +23°C° 0 mm 2 mps 756 mmHg 57%
    10:00 +24°C° 0 mm 2 mps 756 mmHg 50%
    11:00 +26°C° 0 mm 2 mps 756 mmHg 44%
    12:00 +26°C° 0 mm 2 mps 756 mmHg 44%
    13:00 +26°C° 0 mm 3 mps 755 mmHg 45%
    14:00 +27°C° 0 mm 4 mps 755 mmHg 45%
    15:00 +25°C° 0 mm 4 mps 754 mmHg 50%
    16:00 +23°C° 0 mm 4 mps 754 mmHg 55%
    17:00 +22°C° 0 mm 5 mps 754 mmHg 60%
    18:00 +21°C° 0 mm 4 mps 754 mmHg 66%
    19:00 +19°C° 0 mm 3 mps 754 mmHg 71%
    20:00 +18°C° 0 mm 3 mps 754 mmHg 77%
    21:00 +18°C° 0 mm 3 mps 754 mmHg 80%
    22:00 +17°C° 0 mm 2 mps 754 mmHg 82%
    23:00 +17°C° 0 mm 2 mps 755 mmHg 85%

    16 December, Saturday

    Time Temperature Precipitation Wind Pressure Humidity
    00:00 +17°C° 0 mm 2 mps 754 mmHg 87%
    01:00 +16°C° 0 mm 2 mps 754 mmHg 88%
    02:00 +16°C° 0 mm 2 mps 754 mmHg 90%
    03:00 +16°C° 0 mm 2 mps 753 mmHg 91%
    04:00 +15°C° 0 mm 2 mps 753 mmHg 92%
    05:00 +15°C° 0 mm 1 mps 753 mmHg 93%
    06:00 +18°C° 0 mm 1 mps 753 mmHg 82%
    07:00 +20°C° 0 mm 1 mps 753 mmHg 71%
    08:00 +23°C° 0 mm 1 mps 753 mmHg 61%
    09:00 +24°C° 0 mm 1 mps 752 mmHg 55%
    10:00 +26°C° 0 mm 2 mps 751 mmHg 50%
    11:00 +28°C° 0 mm 2 mps 751 mmHg 44%
    12:00 +28°C° 0 mm 2 mps 750 mmHg 45%
    13:00 +28°C° 0 mm 3 mps 749 mmHg 46%
    14:00 +28°C° 0 mm 4 mps 749 mmHg 47%
    15:00 +26°C° 0 mm 4 mps 748 mmHg 52%
    16:00 +25°C° 0 mm 5 mps 748 mmHg 56%
    17:00 +23°C° 0 mm 5 mps 747 mmHg 60%
    18:00 +22°C° 0 mm 5 mps 748 mmHg 63%
    19:00 +21°C° 0 mm 5 mps 748 mmHg 66%
    20:00 +20°C° 0 mm 4 mps 748 mmHg 69%
    21:00 +19°C° 0.1 mm 5 mps 748 mmHg 72%
    22:00 +19°C° 0.1 mm 5 mps 747 mmHg 75%
    23:00 +17°C° 0.1 mm 5 mps 747 mmHg 78%

    17 December, Sunday

    Time Temperature Precipitation Wind Pressure Humidity
    00:00 +17°C° 0.2 mm 5 mps 747 mmHg 78%
    01:00 +17°C° 0.2 mm 6 mps 746 mmHg 78%
    02:00 +16°C° 0.2 mm 6 mps 745 mmHg 78%
    03:00 +16°C° 0.6 mm 7 mps 745 mmHg 80%
    04:00 +15°C° 0.6 mm 7 mps 745 mmHg 82%
    05:00 +13°C° 0.6 mm 8 mps 745 mmHg 84%
    06:00 +13°C° 1 mm 8 mps 745 mmHg 81%
    07:00 +12°C° 1 mm 8 mps 745 mmHg 77%
    08:00 +12°C° 1 mm 8 mps 746 mmHg 73%
    09:00 +15°C° 0.1 mm 9 mps 745 mmHg 62%
    10:00 +17°C° 0.1 mm 9 mps 745 mmHg 50%
    11:00 +19°C° 0.1 mm 10 mps 745 mmHg 38%
    12:00 +19°C° 0 mm 10 mps 744 mmHg 36%
    13:00 +19°C° 0 mm 10 mps 744 mmHg 34%
    14:00 +19°C° 0 mm 10 mps 743 mmHg 32%
    15:00 +19°C° 0 mm 11 mps 742 mmHg 36%
    16:00 +18°C° 0 mm 11 mps 742 mmHg 41%
    17:00 +17°C° 0 mm 12 mps 741 mmHg 45%
    18:00 +15°C° 1 mm 12 mps 741 mmHg 55%
    19:00 +13°C° 1 mm 12 mps 741 mmHg 65%
    20:00 +12°C° 1 mm 12 mps 741 mmHg 75%
    21:00 +12°C° 0.4 mm 12 mps 740 mmHg 74%
    22:00 +12°C° 0.4 mm 12 mps 740 mmHg 73%
    23:00 +12°C° 0.4 mm 12 mps 740 mmHg 72%
    Show more